GW4532 Weather Reports


time (UTC)temp
C
wind
direction
speed
KPH
gust
KPH
rain 1hr
cm
rain 24hr
cm
rain mn
cm
humidity
%
barometer
mb
20260505153021 27 69 4.8 11.3 0.00 0.00 0.00 38 1019.9
20260505151027 24 167 3.2 4.8 0.00 0.00 0.00 44 1020.1
20260505125018 10 206 1.6 4.8 0.00 0.00 0.00 90 1019.9
20260505124027 8 0.0 0.0 0.00 0.00 0.00 92 1019.9
20260505123024 8 180 0.0 1.6 0.00 0.00 0.00 92 1019.9
20260505122021 7 195 1.6 3.2 0.00 0.00 0.00 92 1019.8
20260505121019 7 0.0 0.0 0.00 0.00 0.00 92 1019.7
20260505120016 7 203 1.6 3.2 0.00 0.00 0.00 93 1019.7
20260505115020 6 203 0.0 3.2 0.00 0.00 0.00 93 1019.6
20260505114018 6 0.0 0.0 0.00 0.00 0.00 92 1019.5
20260505113032 6 0.0 0.0 0.00 0.00 0.00 92 1019.6
20260505112017 6 0.0 0.0 0.00 0.00 0.00 93 1019.6
20260505111033 6 0.0 0.0 0.00 0.00 0.00 92 1019.5
20260505102026 6 0.0 0.0 0.00 0.00 0.00 91 1019.4
20260505101029 6 0.0 0.0 0.00 0.00 0.00 91 1019.2
20260505100027 6 0.0 0.0 0.00 0.00 0.00 91 1019.2
20260505094016 7 0.0 0.0 0.00 0.00 0.00 88 1018.9
20260505093019 7 0.0 0.0 0.00 0.00 0.00 89 1018.9
20260505092022 7 0.0 0.0 0.00 0.00 0.00 89 1018.9
20260505091025 7 0.0 0.0 0.00 0.00 0.00 89 1018.9
20260505090027 7 0.0 0.0 0.00 0.00 0.00 90 1018.8
20260505085024 7 0.0 0.0 0.00 0.00 0.00 91 1018.7
20260505084022 7 183 0.0 4.8 0.00 0.00 0.00 91 1018.7
20260505083020 7 0.0 0.0 0.00 0.00 0.00 90 1018.5
20260505082017 7 0.0 0.0 0.00 0.00 0.00 89 1018.5
20260505081034 7 0.0 0.0 0.00 0.00 0.00 89 1018.4
20260505080018 7 0.0 0.0 0.00 0.00 0.00 88 1018.4
20260505075033 7 0.0 0.0 0.00 0.00 0.00 89 1018.4
20260505074130 7 0.0 0.0 0.00 0.00 0.00 88 1018.4
20260505073027 8 0.0 0.0 0.00 0.00 0.00 88 1018.5
20260505072024 8 0.0 0.0 0.00 0.00 0.00 88 1018.7
20260505071021 8 0.0 0.0 0.00 0.00 0.00 88 1018.6
20260505070025 8 0.0 0.0 0.00 0.00 0.00 87 1018.6
20260505065022 8 0.0 0.0 0.00 0.00 0.00 87 1018.7
20260505064025 8 0.0 0.0 0.00 0.00 0.00 88 1018.9
20260505063129 8 0.0 0.0 0.00 0.00 0.00 87 1018.9
20260505062026 8 0.0 0.0 0.00 0.00 0.00 87 1019.1
20260505061029 8 0.0 0.0 0.00 0.00 0.00 87 1019.1
20260505060031 9 0.0 0.0 0.00 0.00 0.00 87 1019.1
20260505055117 9 0.0 0.0 0.00 0.00 0.00 86 1019.0
20260505054020 9 0.0 0.0 0.00 0.00 0.00 86 1018.9
20260505053023 9 0.0 0.0 0.00 0.00 0.00 86 1018.9
20260505052025 10 0.0 0.0 0.00 0.00 0.00 86 1018.9
20260505051023 10 0.0 0.0 0.00 0.00 0.00 86 1019.1
20260505041025 10 0.0 0.0 0.00 0.00 0.00 81 1018.9
20260505040028 11 0.0 0.0 0.00 0.00 0.00 80 1019.1
20260505035026 11 0.0 0.0 0.00 0.00 0.00 79 1019.2
20260505033121 11 0.0 0.0 0.00 0.00 0.00 75 1019.4
20260505032019 12 0.0 0.0 0.00 0.00 0.00 75 1019.4
20260505031016 12 0.0 0.0 0.00 0.00 0.00 74 1019.3
20260505030032 12 0.0 0.0 0.00 0.00 0.00 74 1019.2
20260505025017 13 0.0 0.0 0.00 0.00 0.00 71 1019.2
20260505024020 13 0.0 0.0 0.00 0.00 0.00 69 1019.2
20260505023024 13 0.0 0.0 0.00 0.00 0.00 69 1019.2
20260505022027 13 0.0 0.0 0.00 0.00 0.00 67 1018.9
20260505021029 13 192 1.6 3.2 0.00 0.00 0.00 67 1018.9
20260505020032 13 203 0.0 3.2 0.00 0.00 0.00 68 1018.9
20260505015017 14 0.0 1.6 0.00 0.00 0.00 67 1018.9
20260505014027 14 0.0 0.0 0.00 0.00 0.00 65 1018.7
20260505013024 14 173 0.0 3.2 0.00 0.00 0.00 64 1018.5
20260505012022 15 0.0 0.0 0.00 0.00 0.00 63 1018.4
20260505011019 15 0.0 0.0 0.00 0.00 0.00 61 1018.4
20260505010016 15 0.0 0.0 0.00 0.00 0.00 62 1018.4
20260505005019 16 0.0 0.0 0.00 0.00 0.00 60 1018.4
20260505004017 16 0.0 0.0 0.00 0.00 0.00 59 1018.3
20260505003114 17 0.0 0.0 0.00 0.00 0.00 57 1018.2
20260505002029 17 180 0.0 1.6 0.00 0.00 0.00 56 1018.1
20260505001032 17 158 0.0 3.2 0.00 0.00 0.00 55 1018.1
20260504235032 18 0.0 1.6 0.00 0.00 0.00 54 1017.9
20260504232018 20 203 1.6 4.8 0.00 0.00 0.00 50 1017.7
20260504231021 21 0.0 0.0 0.00 0.00 0.00 50 1017.6
20260504230025 21 114 1.6 4.8 0.00 0.00 0.00 49 1017.6
20260504225127 21 170 3.2 4.8 0.00 0.00 0.00 47 1017.6
20260504224030 22 136 3.2 4.8 0.00 0.00 0.00 45 1017.6
20260504223015 22 236 3.2 8.0 0.00 0.00 0.00 46 1017.5
20260504222018 22 41 1.6 3.2 0.00 0.00 0.00 46 1017.6
20260504221027 23 60 1.6 6.4 0.00 0.00 0.00 43 1017.6
20260504220024 23 128 1.6 4.8 0.00 0.00 0.00 41 1017.5
20260504215021 24 210 1.6 4.8 0.00 0.00 0.00 41 1017.5
20260504213015 25 101 6.4 9.7 0.00 0.00 0.00 37 1017.5
20260504212018 26 90 4.8 8.0 0.00 0.00 0.00 36 1017.3
20260504211115 27 113 3.2 6.4 0.00 0.00 0.00 34 1017.3
20260504210034 28 142 4.8 8.0 0.00 0.00 0.00 32 1017.4
20260504205016 30 157 3.2 4.8 0.00 0.00 0.00 31 1017.5
20260504204032 30 67 6.4 9.7 0.00 0.00 0.00 30 1017.5
20260504203029 30 173 6.4 9.7 0.00 0.00 0.00 28 1017.6
20260504202033 30 285 6.4 11.3 0.00 0.00 0.00 27 1017.7
20260504201031 30 171 6.4 11.3 0.00 0.00 0.00 26 1017.8
20260504200018 30 120 4.8 9.7 0.00 0.00 0.00 25 1017.8
20260504195032 30 55 6.4 11.3 0.00 0.00 0.00 25 1017.8
20260504194030 30 275 6.4 11.3 0.00 0.00 0.00 25 1018.0
20260504193028 31 130 6.4 11.3 0.00 0.00 0.00 23 1018.1
20260504192111 32 119 4.8 9.7 0.00 0.00 0.00 23 1018.2
20260504191017 32 244 4.8 8.0 0.00 0.00 0.00 22 1018.3
20260504190020 33 100 4.8 8.0 0.00 0.00 0.00 23 1018.4
20260504185022 34 80 6.4 12.9 0.00 0.00 0.00 22 1018.4
20260504184024 34 221 3.2 6.4 0.00 0.00 0.00 21 1018.3
20260504183027 33 222 3.2 4.8 0.00 0.00 0.00 20 1018.7
20260504182024 34 270 3.2 6.4 0.00 0.00 0.00 19 1018.7
20260504181021 32 216 1.6 4.8 0.00 0.00 0.00 21 1018.9
20260504180019 32 244 4.8 8.0 0.00 0.00 0.00 19 1019.0
20260504175017 32 85 3.2 6.4 0.00 0.00 0.00 18 1019.1
20260504174032 32 245 3.2 3.2 0.00 0.00 0.00 19 1019.4
20260504173030 31 234 3.2 8.0 0.00 0.00 0.00 19 1019.6
20260504172027 31 178 4.8 9.7 0.00 0.00 0.00 22 1019.7
20260504171025 31 242 3.2 6.4 0.00 0.00 0.00 24 1019.8